Location: Beneden-Haastrecht
(52.0012°N, 4.7557°E)
Time: 04:59:42
(UTC+00:00)

Cosmos 2297 Rocket - Pass Details

Date: 24 October 2020
Orbit: 838 x 845 km, 71.0° (Epoch: 25 November)

Event Time Altitude Azimuth Distance (km) Brightness Sun altitude
Rises 18:44:54 0° 327° (NNW) 3,416 6.0 -21.8°
Reaches altitude 10° 18:47:24 10° 322° (NW) 2,477 5.2 -22.1°
Maximum altitude 18:52:54 53° 248° (WSW) 1,036 2.9 -23.0°
Enters shadow 18:58:01 12° 174° (S) 2,331 4.3 -23.8°
